Location: ????????
(55.6189°N, 38.3031°E)
Time: 16:58:18
(UTC+00:00)

Cosmos 2058 - Pass Details

Date: 15 November 2019
Orbit: 562 x 585 km, 82.5° (Epoch: 05 December)

Event Time Altitude Azimuth Distance (km) Brightness Sun altitude
Rises 02:18:25 0° 183° (S) 2,802 6.4 -22.5°
Reaches altitude 10° 02:20:36 10° 181° (S) 1,905 5.5 -22.2°
Maximum altitude 02:24:47 70° 98° (E) 627 3.2 -21.6°
Drops below altitude 10° 02:29:00 10° 16° (NNE) 1,913 5.7 -21.0°
Sets 02:31:12 0° 14° (NNE) 2,815 6.6 -20.7°
